User: anonymous   Login
Location: Unspecified
(0.0000°N, 0.0000°E)
Time: 00:06:13
(UTC+00:00)
Language:

UWE-3 - Orbit

View from above orbital plane
View from above orbital plane
View from above satellite
View from above satellite

Ground track
Ground track

The orbit data is extracted from the following two-line orbital elements,

1 39446U 13066AG  21340.48696794  .00000635  00000-0  89574-4 0  9996
2 39446  97.6600 308.3057 0069534 359.7054   0.4106 14.78960421431935
Epoch (UTC): 06 December 2021 11:41:14
Eccentricity: 0.0069534
inclination: 97.6600°
perigee height: 584 km
apogee height: 681 km
right ascension of ascending node: 308.3057°
argument of perigee: 359.7054°
revolutions per day: 14.78960421
mean anomaly at epoch: 0.4106°
orbit number at epoch: 43193

The dashed part of the orbit path shows where the satellite is in the earth's shadow,  

DLR